This is the latest recevied weather packets stored in our database for station/object N5RPG. If no packets are shown the sender has not sent any weather packets the latest 1 day(s).
| Time | Temp. | Humidity | Pressure | Rain* | Wind** | Luminosity | Snow |
|---|---|---|---|---|---|---|---|
| 1778005839 | 27.78° C | 69% | 1007.9 hPa | 0 mm | 3.13 m/s, 199° | 354 W/m² | - |
| 1778005535 | 27.78° C | 69% | 1007.9 hPa | 0 mm | 0.89 m/s, 264° | 837 W/m² | - |
| 1778005232 | 27.22° C | 70% | 1008.2 hPa | 0 mm | 2.24 m/s, 237° | 653 W/m² | - |
| 1778004928 | 27.78° C | 70% | 1008.2 hPa | 0 mm | 0.89 m/s, 268° | 523 W/m² | - |
| 1778004626 | 27.22° C | 71% | 1008 hPa | 0 mm | 1.34 m/s, 161° | 1369 W/m² | - |
| 1778004321 | 27.22° C | 71% | 1008 hPa | 0 mm | 1.79 m/s, 179° | 409 W/m² | - |
| 1778004021 | 27.22° C | 69% | 1007.9 hPa | 0 mm | 1.79 m/s, 238° | 457 W/m² | - |
| 1778003715 | 27.22° C | 70% | 1008 hPa | 0 mm | 2.24 m/s, 267° | 524 W/m² | - |
| 1778003412 | 27.22° C | 70% | 1008 hPa | 0 mm | 1.34 m/s, 274° | 494 W/m² | - |
| 1778003109 | 26.67° C | 72% | 1008.1 hPa | 0 mm | 1.79 m/s, 99° | 434 W/m² | - |
| 1778002805 | 26.11° C | 72% | 1008.3 hPa | 0 mm | 6.71 m/s, 217° | 1215 W/m² | - |
| 1778002502 | 26.11° C | 73% | 1008.1 hPa | 0 mm | 2.68 m/s, 157° | 345 W/m² | - |
| 1778002198 | 26.11° C | 74% | 1008.2 hPa | 0 mm | 1.79 m/s, 225° | 234 W/m² | - |
| 1778001897 | 25.56° C | 75% | 1008.1 hPa | 0 mm | 0.89 m/s, 260° | 495 W/m² | - |
| 1778001596 | 26.11° C | 74% | 1008.2 hPa | 0 mm | 1.79 m/s, 221° | 746 W/m² | - |
| 1778001293 | 25.56° C | 76% | 1008.2 hPa | 0 mm | 1.34 m/s, 249° | 404 W/m² | - |
| 1778000989 | 25.56° C | 77% | 1008.2 hPa | 0 mm | 1.34 m/s, 255° | 769 W/m² | - |
| 1778000686 | 25° C | 78% | 1008.4 hPa | 0 mm | 0.89 m/s, 234° | 343 W/m² | - |
| 1778000382 | 25° C | 77% | 1008.7 hPa | 0 mm | 1.79 m/s, 181° | 316 W/m² | - |
| 1778000078 | 25° C | 77% | 1008.4 hPa | 0 mm | 1.79 m/s, 248° | 493 W/m² | - |
| 1777999773 | 25° C | 78% | 1008.5 hPa | 0 mm | 2.68 m/s, 255° | 301 W/m² | - |
| 1777999470 | 24.44° C | 79% | 1008.5 hPa | 0 mm | 2.24 m/s, 201° | 337 W/m² | - |
| 1777999168 | 24.44° C | 80% | 1008.4 hPa | 0 mm | 0.89 m/s, 224° | 350 W/m² | - |
| 1777998867 | 24.44° C | 80% | 1008.6 hPa | 0 mm | 1.79 m/s, 193° | 435 W/m² | - |
| 1777998566 | 23.89° C | 81% | 1008.4 hPa | 0 mm | 2.24 m/s, 150° | 278 W/m² | - |
* Rain latest hour (hover to see other rain measurements)
** Current wind speed in m/s (hover to see current wind gust speed)